Record,Date/Time,10,Tamb(K),Rh(%),Pres(mb),Rain,Az(deg),El(deg),TkBB(K), 22.235, 23.035, 23.835, 26.235, 30.000,
     1,10/11/05 00:01:13,11,290.83, 63.88,1019.5,N,  0.00, 90.00,297.01, 33.36, 33.68, 30.25, 24.35, 21.70,
     2,10/11/05 00:02:14,11,291.04, 67.28,1019.6,N,  0.00, 90.00,297.02, 32.99, 32.86, 29.37, 23.84, 21.31,
     3,10/11/05 00:03:14,11,290.73, 64.74,1019.5,N,  0.00, 90.00,297.03, 33.31, 33.39, 30.00, 24.32, 21.23,
     4,10/11/05 00:04:13,11,290.87, 61.66,1019.4,N,  0.00, 90.00,297.01, 33.48, 33.68, 29.98, 24.74, 21.60,
     5,10/11/05 00:05:14,11,290.77, 62.12,1019.6,N,  0.00, 90.00,297.01, 33.90, 33.41, 30.11, 25.50, 22.58,
     6,10/11/05 00:06:14,11,290.99, 64.44,1019.5,N,  0.00, 90.00,297.00, 33.59, 33.49, 30.05, 25.28, 22.07,
     7,10/11/05 00:07:14,11,291.03, 66.72,1019.5,N,  0.00, 90.00,297.00, 33.51, 33.72, 30.38, 24.87, 22.60,
     8,10/11/05 00:08:14,11,291.00, 64.84,1019.4,N,  0.00, 90.00,297.00, 32.83, 33.60, 30.28, 25.05, 21.35,
     9,10/11/05 00:09:13,11,290.93, 64.70,1019.6,N,  0.00, 90.00,297.00, 33.61, 32.77, 29.68, 24.20, 20.83,
    10,10/11/05 00:10:14,11,290.95, 63.93,1019.4,N,  0.00, 90.00,297.00, 32.75, 32.60, 28.72, 23.41, 20.66,
    11,10/11/05 00:11:14,11,290.91, 61.32,1019.4,N,  0.00, 90.00,297.00, 32.62, 32.84, 29.72, 24.20, 20.71,
    12,10/11/05 00:12:14,11,290.98, 62.97,1019.6,N,  0.00, 90.00,297.00, 32.67, 32.89, 29.49, 23.73, 20.63,
    13,10/11/05 00:13:14,11,290.94, 62.96,1019.7,N,  0.00, 90.00,296.99, 32.19, 32.13, 29.01, 23.23, 19.59,
    14,10/11/05 00:14:14,11,290.93, 63.26,1019.6,N,  0.00, 90.00,296.99, 31.47, 31.02, 27.84, 21.86, 17.61,
    15,10/11/05 00:15:13,11,290.93, 60.73,1019.5,N,  0.00, 90.00,296.98, 31.34, 31.12, 28.04, 22.39, 18.95,
    16,10/11/05 00:16:14,11,290.95, 60.40,1019.5,N,  0.00, 90.00,296.97, 31.25, 30.65, 27.04, 21.91, 17.52,
    17,10/11/05 00:17:14,11,290.93, 63.80,1019.7,N,  0.00, 90.00,296.97, 31.06, 31.08, 27.47, 22.22, 18.41,
    18,10/11/05 00:18:14,11,290.90, 61.55,1019.6,N,  0.00, 90.00,296.97, 31.18, 30.76, 27.50, 21.86, 18.20,
    19,10/11/05 00:19:13,11,290.84, 61.99,1019.9,N,  0.00, 90.00,296.95, 31.49, 31.00, 27.40, 22.21, 17.83,
    20,10/11/05 00:20:14,11,290.95, 65.54,1019.8,N,  0.00, 90.00,296.95, 31.20, 31.09, 27.75, 22.87, 18.28,
    21,10/11/05 00:21:13,11,290.91, 64.72,1019.8,N,  0.00, 90.00,296.95, 31.60, 31.09, 27.66, 22.50, 18.84,
    22,10/11/05 00:22:14,11,290.87, 62.42,1019.8,N,  0.00, 90.00,296.94, 31.66, 31.29, 27.96, 22.13, 18.19,
    23,10/11/05 00:23:14,11,290.83, 60.03,1019.9,N,  0.00, 90.00,296.95, 32.29, 31.38, 28.34, 23.01, 19.16,
    24,10/11/05 00:24:14,11,290.87, 59.33,1019.8,N,  0.00, 90.00,296.93, 31.59, 31.73, 28.31, 23.65, 19.15,
    25,10/11/05 00:25:14,11,290.91, 61.20,1019.8,N,  0.00, 90.00,296.95, 31.68, 31.53, 27.96, 22.49, 18.97,
    26,10/11/05 00:26:13,11,290.84, 60.70,1019.7,N,  0.00, 90.00,296.94, 33.02, 33.02, 29.48, 24.58, 21.39,
    27,10/11/05 00:27:14,11,291.03, 64.65,1019.8,N,  0.00, 90.00,296.92, 33.09, 33.17, 29.51, 24.26, 22.16,
    28,10/11/05 00:28:14,11,290.87, 62.51,1019.6,N,  0.00, 90.00,296.93, 33.38, 32.93, 30.03, 24.33, 21.28,
    29,10/11/05 00:29:13,11,290.97, 62.85,1019.8,N,  0.00, 90.00,296.93, 32.70, 32.88, 29.74, 24.13, 21.33,
    30,10/11/05 00:30:14,11,290.99, 61.59,1019.6,N,  0.00, 90.00,296.93, 33.06, 32.99, 29.70, 24.06, 20.72,
    31,10/11/05 00:31:14,11,291.02, 63.54,1019.8,N,  0.00, 90.00,296.94, 32.63, 32.64, 29.07, 23.52, 19.59,
    32,10/11/05 00:32:14,11,290.94, 63.44,1019.8,N,  0.00, 90.00,296.94, 32.35, 32.63, 28.78, 23.05, 19.32,
    33,10/11/05 00:33:14,11,290.95, 66.58,1019.9,N,  0.00, 90.00,296.93, 32.78, 32.15, 29.43, 23.52, 19.76,
    34,10/11/05 00:34:14,11,290.90, 61.68,1019.8,N,  0.00, 90.00,296.92, 32.46, 31.94, 29.44, 23.61, 19.53,
    35,10/11/05 00:35:13,11,291.00, 64.39,1020.0,N,  0.00, 90.00,296.91, 32.47, 32.45, 28.71, 22.94, 20.55,
    36,10/11/05 00:36:13,11,290.92, 61.20,1019.9,N,  0.00, 90.00,296.93, 31.81, 31.87, 28.19, 22.32, 18.78,
    37,10/11/05 00:37:14,11,291.13, 63.88,1019.9,N,  0.00, 90.00,296.93, 30.30, 30.45, 26.38, 20.79, 16.06,
    38,10/11/05 00:38:14,11,291.01, 61.23,1020.0,N,  0.00, 90.00,296.93, 31.62, 31.21, 27.89, 22.19, 17.59,
    39,10/11/05 00:39:13,11,290.99, 61.86,1019.8,N,  0.00, 90.00,296.93, 30.93, 30.92, 27.51, 21.37, 17.51,
    40,10/11/05 00:40:13,11,290.87, 59.13,1020.0,N,  0.00, 90.00,296.91, 31.78, 31.65, 27.90, 22.63, 19.34,
    41,10/11/05 00:41:14,11,291.01, 59.38,1020.0,N,  0.00, 90.00,296.92, 32.33, 32.26, 28.57, 23.19, 19.55,
    42,10/11/05 00:42:14,11,290.94, 60.13,1019.7,N,  0.00, 90.00,296.90, 32.44, 32.79, 29.75, 23.67, 21.47,
    43,10/11/05 00:43:13,11,290.91, 60.24,1020.1,N,  0.00, 90.00,296.90, 32.95, 32.88, 29.61, 23.91, 19.84,
    44,10/11/05 00:44:14,11,290.93, 62.75,1019.9,N,  0.00, 90.00,296.90, 30.71, 30.16, 27.24, 20.81, 16.80,
    45,10/11/05 00:45:13,11,291.01, 62.93,1020.0,N,  0.00, 90.00,296.91, 31.57, 31.14, 27.82, 22.33, 19.65,
    46,10/11/05 00:46:14,11,290.92, 61.45,1019.8,N,  0.00, 90.00,296.91, 32.21, 32.73, 29.83, 24.05, 19.93,
    47,10/11/05 00:47:14,11,291.07, 65.84,1019.9,N,  0.00, 90.00,296.90, 33.28, 33.39, 29.60, 23.91, 21.23,
    48,10/11/05 00:48:14,11,290.92, 62.94,1019.9,N,  0.00, 90.00,296.91, 34.06, 33.34, 30.11, 24.99, 21.98,
    49,10/11/05 00:49:14,11,290.97, 65.97,1019.9,N,  0.00, 90.00,296.90, 33.61, 33.56, 30.31, 24.87, 21.64,
    50,10/11/05 00:50:14,11,290.88, 64.27,1020.0,N,  0.00, 90.00,296.90, 33.10, 33.77, 30.27, 24.38, 21.10,
    51,10/11/05 00:51:14,11,290.85, 64.06,1020.1,N,  0.00, 90.00,296.90, 33.25, 33.01, 30.00, 24.57, 20.23,
    52,10/11/05 00:52:14,11,290.87, 62.05,1020.1,N,  0.00, 90.00,296.90, 31.66, 31.55, 27.93, 22.11, 19.40,
    53,10/11/05 00:53:13,11,290.92, 60.82,1020.3,N,  0.00, 90.00,296.90, 32.32, 31.67, 28.19, 22.35, 18.69,
    54,10/11/05 00:54:14,11,290.96, 60.87,1020.1,N,  0.00, 90.00,296.88, 32.10, 31.57, 28.43, 22.57, 18.25,
    55,10/11/05 00:55:14,11,291.00, 61.92,1020.1,N,  0.00, 90.00,296.90, 32.41, 32.01, 28.93, 23.55, 19.94,
    56,10/11/05 00:56:14,11,291.03, 60.87,1020.1,N,  0.00, 90.00,296.89, 31.99, 32.71, 28.82, 23.18, 19.85,
    57,10/11/05 00:57:13,11,290.96, 62.62,1020.2,N,  0.00, 90.00,296.89, 31.97, 32.06, 28.76, 22.87, 19.71,
    58,10/11/05 00:58:14,11,290.91, 60.07,1019.9,N,  0.00, 90.00,296.89, 31.55, 31.70, 27.75, 22.07, 18.52,
    59,10/11/05 00:59:14,11,290.93, 60.56,1020.1,N,  0.00, 90.00,296.89, 32.51, 32.52, 28.62, 23.75, 20.30,
    60,10/11/05 01:00:14,11,290.95, 62.36,1020.0,N,  0.00, 90.00,296.89, 32.56, 32.41, 29.06, 23.28, 19.47,
    61,10/11/05 01:01:13,11,290.92, 60.58,1020.3,N,  0.00, 90.00,296.89, 33.06, 32.41, 29.02, 23.49, 19.95,
    62,10/11/05 01:02:14,11,291.03, 63.09,1020.1,N,  0.00, 90.00,296.89, 32.64, 32.28, 29.22, 23.54, 19.47,
    63,10/11/05 01:03:14,11,291.05, 64.39,1020.2,N,  0.00, 90.00,296.89, 32.38, 32.59, 29.32, 23.33, 20.14,
    64,10/11/05 01:04:14,11,291.16, 63.74,1020.1,N,  0.00, 90.00,296.87, 32.55, 32.80, 29.26, 23.49, 20.66,
    65,10/11/05 01:05:14,11,291.16, 60.77,1020.2,N,  0.00, 90.00,296.88, 31.83, 31.57, 28.97, 23.24, 19.51,
    66,10/11/05 01:06:14,11,290.93, 59.88,1020.1,N,  0.00, 90.00,296.87, 31.12, 31.33, 27.44, 21.57, 18.71,
    67,10/11/05 01:07:14,11,291.06, 59.83,1020.1,N,  0.00, 90.00,296.88, 30.32, 30.58, 26.60, 21.53, 16.84,
    68,10/11/05 01:08:13,11,290.95, 59.82,1020.1,N,  0.00, 90.00,296.86, 31.60, 31.94, 28.25, 22.64, 20.05,
    69,10/11/05 01:09:14,11,290.85, 59.04,1020.2,N,  0.00, 90.00,296.84, 31.64, 31.61, 28.46, 23.29, 19.40,
    70,10/11/05 01:10:13,11,290.97, 60.33,1020.1,N,  0.00, 90.00,296.86, 31.97, 32.17, 28.43, 22.50, 19.96,
    71,10/11/05 01:11:14,11,290.90, 60.70,1020.2,N,  0.00, 90.00,296.86, 31.52, 31.30, 28.35, 22.68, 18.96,
    72,10/11/05 01:12:13,11,290.75, 59.34,1020.3,N,  0.00, 90.00,296.84, 31.56, 31.88, 28.38, 22.99, 18.46,
    73,10/11/05 01:13:14,11,290.92, 62.00,1020.3,N,  0.00, 90.00,296.84, 32.29, 32.03, 28.57, 22.71, 18.96,
    74,10/11/05 01:14:14,11,290.96, 60.01,1020.2,N,  0.00, 90.00,296.85, 31.86, 31.63, 28.34, 22.91, 19.19,
    75,10/11/05 01:15:14,11,290.99, 59.78,1020.4,N,  0.00, 90.00,296.84, 31.90, 31.58, 27.88, 22.62, 18.67,
    76,10/11/05 01:16:14,11,290.95, 61.68,1020.3,N,  0.00, 90.00,296.84, 31.67, 31.49, 27.43, 21.94, 18.59,
    77,10/11/05 01:17:13,11,290.95, 62.44,1020.3,N,  0.00, 90.00,296.85, 32.58, 31.82, 28.80, 23.18, 20.18,
    78,10/11/05 01:18:14,11,290.93, 62.26,1020.3,N,  0.00, 90.00,296.84, 32.27, 31.71, 28.03, 22.82, 18.66,
    79,10/11/05 01:19:14,11,290.81, 61.45,1020.3,N,  0.00, 90.00,296.84, 31.47, 31.19, 28.45, 22.44, 18.88,
    80,10/11/05 01:20:13,11,290.88, 59.91,1020.2,N,  0.00, 90.00,296.83, 31.58, 31.30, 27.54, 21.95, 18.32,
    81,10/11/05 01:21:14,11,290.94, 61.77,1020.4,N,  0.00, 90.00,296.83, 31.83, 31.80, 27.87, 22.61, 19.59,
    82,10/11/05 01:22:14,11,290.86, 62.33,1020.5,N,  0.00, 90.00,296.84, 31.84, 31.86, 28.34, 23.06, 19.65,
    83,10/11/05 01:23:14,11,291.06, 64.21,1020.3,N,  0.00, 90.00,296.83, 31.71, 31.69, 28.44, 22.64, 19.22,
    84,10/11/05 01:24:13,11,290.84, 59.27,1020.5,N,  0.00, 90.00,296.84, 31.84, 31.60, 28.15, 22.60, 18.31,
    85,10/11/05 01:25:14,11,290.97, 61.47,1020.2,N,  0.00, 90.00,296.83, 31.61, 31.60, 28.04, 21.94, 19.02,
    86,10/11/05 01:26:14,11,290.90, 59.73,1020.4,N,  0.00, 90.00,296.84, 31.48, 31.19, 28.34, 22.30, 19.22,
    87,10/11/05 01:27:14,11,290.89, 60.45,1020.4,N,  0.00, 90.00,296.83, 31.94, 32.16, 28.97, 23.27, 19.20,
    88,10/11/05 01:28:14,11,291.01, 64.03,1020.3,N,  0.00, 90.00,296.85, 32.26, 31.86, 28.47, 23.37, 19.94,
    89,10/11/05 01:29:13,11,290.98, 63.39,1020.4,N,  0.00, 90.00,296.85, 31.86, 31.74, 28.10, 22.46, 19.50,
    90,10/11/05 01:30:14,11,290.90, 63.57,1020.4,N,  0.00, 90.00,296.84, 31.74, 32.29, 28.79, 23.03, 19.54,
    91,10/11/05 01:31:13,11,291.02, 61.55,1020.3,N,  0.00, 90.00,296.86, 32.83, 32.99, 29.87, 24.54, 21.46,
    92,10/11/05 01:32:14,11,290.90, 61.40,1020.4,N,  0.00, 90.00,296.85, 33.08, 33.11, 29.49, 24.13, 20.48,
    93,10/11/05 01:33:14,11,291.04, 61.05,1020.5,N,  0.00, 90.00,296.86, 33.22, 33.02, 29.87, 23.91, 20.84,
    94,10/11/05 01:34:14,11,291.00, 62.79,1020.5,N,  0.00, 90.00,296.85, 34.00, 33.53, 30.49, 25.00, 20.91,
    95,10/11/05 01:35:14,11,290.94, 61.39,1020.4,N,  0.00, 90.00,296.86, 33.78, 34.08, 30.44, 25.00, 22.77,
    96,10/11/05 01:36:14,11,290.99, 63.41,1020.3,N,  0.00, 90.00,296.84, 33.67, 33.89, 30.43, 24.89, 22.08,
    97,10/11/05 01:37:14,11,290.86, 63.52,1020.6,N,  0.00, 90.00,296.85, 33.36, 33.50, 30.45, 25.28, 22.46,
    98,10/11/05 01:38:14,11,290.99, 62.74,1020.5,N,  0.00, 90.00,296.87, 34.00, 34.12, 30.98, 25.25, 22.74,
    99,10/11/05 01:39:14,11,290.96, 61.25,1020.4,N,  0.00, 90.00,296.86, 33.83, 34.18, 30.79, 25.77, 22.28,
   100,10/11/05 01:40:14,11,290.94, 61.13,1020.5,N,  0.00, 90.00,296.87, 34.38, 34.53, 31.00, 25.52, 23.28,
   101,10/11/05 01:41:14,11,290.93, 61.02,1020.5,N,  0.00, 90.00,296.87, 34.95, 34.89, 31.87, 26.55, 24.54,
   102,10/11/05 01:42:14,11,290.92, 61.53,1020.4,N,  0.00, 90.00,296.85, 34.05, 34.15, 31.53, 26.18, 22.92,
   103,10/11/05 01:43:14,11,290.91, 61.72,1020.5,N,  0.00, 90.00,296.87, 34.25, 34.49, 30.63, 25.66, 22.91,
   104,10/11/05 01:44:14,11,290.94, 59.95,1020.6,N,  0.00, 90.00,296.87, 34.30, 33.99, 30.65, 25.11, 22.75,
   105,10/11/05 01:45:14,11,290.93, 61.73,1020.5,N,  0.00, 90.00,296.87, 33.53, 33.65, 30.30, 25.22, 21.60,
   106,10/11/05 01:46:14,11,290.96, 59.90,1020.5,N,  0.00, 90.00,296.87, 33.23, 33.34, 30.14, 24.97, 21.20,
   107,10/11/05 01:47:14,11,290.87, 60.59,1020.6,N,  0.00, 90.00,296.87, 32.98, 32.87, 29.47, 24.51, 20.66,
   108,10/11/05 01:48:14,11,290.83, 60.01,1020.4,N,  0.00, 90.00,296.86, 33.23, 32.72, 29.85, 23.96, 20.87,
   109,10/11/05 01:49:14,11,290.85, 61.23,1020.6,N,  0.00, 90.00,296.88, 33.53, 33.17, 30.19, 25.04, 21.22,
   110,10/11/05 01:50:14,11,290.99, 63.43,1020.4,N,  0.00, 90.00,296.86, 33.98, 33.89, 30.27, 24.78, 21.59,
   111,10/11/05 01:51:14,11,291.10, 62.72,1020.5,N,  0.00, 90.00,296.88, 34.84, 34.73, 31.59, 25.99, 22.59,
   112,10/11/05 01:52:14,11,291.05, 65.90,1020.6,N,  0.00, 90.00,296.89, 35.05, 34.71, 31.62, 25.65, 23.39,
   113,10/11/05 01:53:14,11,290.93, 65.81,1020.6,N,  0.00, 90.00,296.88, 35.29, 35.63, 31.78, 26.35, 23.40,
   114,10/11/05 01:54:14,11,290.92, 65.43,1020.4,N,  0.00, 90.00,296.89, 35.74, 35.49, 31.75, 26.52, 23.35,
   115,10/11/05 01:55:14,11,290.97, 67.05,1020.5,N,  0.00, 90.00,296.88, 33.56, 33.63, 29.69, 24.03, 21.36,
   116,10/11/05 01:56:14,11,290.92, 66.72,1020.6,N,  0.00, 90.00,296.89, 33.94, 33.22, 29.71, 23.40, 19.54,
   117,10/11/05 01:57:14,11,290.92, 66.89,1020.6,N,  0.00, 90.00,296.90, 34.19, 34.51, 30.86, 25.18, 21.80,
   118,10/11/05 01:58:14,11,290.88, 67.42,1020.6,N,  0.00, 90.00,296.89, 35.10, 34.72, 31.60, 25.03, 22.99,
   119,10/11/05 01:59:14,11,291.01, 68.82,1020.5,N,  0.00, 90.00,296.90, 35.52, 35.17, 31.81, 26.86, 22.18,
   120,10/11/05 02:00:14,11,290.94, 67.25,1020.6,N,  0.00, 90.00,296.90, 34.45, 34.02, 31.02, 25.88, 21.43,
   121,10/11/05 02:01:14,11,291.06, 65.67,1020.6,N,  0.00, 90.00,296.90, 34.89, 34.75, 30.90, 24.85, 22.66,
   122,10/11/05 02:02:14,11,290.91, 65.43,1020.6,N,  0.00, 90.00,296.89, 34.63, 35.03, 31.10, 26.25, 22.86,
   123,10/11/05 02:03:14,11,290.99, 67.03,1020.8,N,  0.00, 90.00,296.89, 35.23, 34.72, 31.59, 25.76, 22.80,
   124,10/11/05 02:04:14,11,290.96, 65.00,1020.6,N,  0.00, 90.00,296.89, 34.40, 34.47, 31.37, 25.74, 23.12,
   125,10/11/05 02:05:14,11,291.01, 66.89,1020.7,N,  0.00, 90.00,296.90, 35.15, 35.02, 31.52, 26.31, 22.23,
   126,10/11/05 02:06:14,11,290.82, 64.72,1020.7,N,  0.00, 90.00,296.89, 33.94, 34.11, 30.90, 25.69, 21.93,
   127,10/11/05 02:07:13,11,291.12, 66.72,1020.7,N,  0.00, 90.00,296.89, 33.73, 33.98, 30.53, 24.46, 21.01,
   128,10/11/05 02:08:14,11,291.01, 65.59,1020.7,N,  0.00, 90.00,296.89, 33.71, 33.07, 29.51, 24.45, 20.56,
   129,10/11/05 02:09:14,11,290.99, 63.25,1020.7,N,  0.00, 90.00,296.90, 34.06, 34.10, 31.03, 25.16, 22.25,
   130,10/11/05 02:10:14,11,291.08, 65.55,1020.8,N,  0.00, 90.00,296.90, 34.99, 35.34, 30.79, 25.55, 22.80,
   131,10/11/05 02:11:14,11,291.02, 64.17,1020.7,N,  0.00, 90.00,296.91, 32.76, 32.92, 29.51, 23.49, 20.17,
   132,10/11/05 02:12:14,11,290.95, 61.82,1020.7,N,  0.00, 90.00,296.90, 33.37, 33.14, 30.30, 23.94, 20.06,
   133,10/11/05 02:13:14,11,290.99, 61.21,1020.8,N,  0.00, 90.00,296.91, 33.25, 32.79, 29.53, 23.14, 19.87,
   134,10/11/05 02:14:14,11,291.07, 64.61,1020.8,N,  0.00, 90.00,296.91, 33.43, 32.95, 29.66, 23.86, 21.15,
   135,10/11/05 02:15:14,11,290.88, 61.17,1020.8,N,  0.00, 90.00,296.88, 33.75, 33.42, 30.47, 23.93, 21.78,
   136,10/11/05 02:16:14,11,291.02, 61.97,1020.8,N,  0.00, 90.00,296.92, 34.15, 33.62, 30.31, 24.94, 21.54,
   137,10/11/05 02:17:14,11,291.06, 61.20,1020.6,N,  0.00, 90.00,296.91, 34.66, 34.57, 30.81, 25.37, 22.31,
   138,10/11/05 02:18:14,11,291.08, 61.37,1020.8,N,  0.00, 90.00,296.92, 34.32, 33.95, 30.43, 25.08, 22.47,
   139,10/11/05 02:19:14,11,291.07, 62.40,1020.7,N,  0.00, 90.00,296.91, 35.37, 35.04, 31.93, 26.18, 23.14,
   140,10/11/05 02:20:14,11,291.07, 63.67,1020.7,N,  0.00, 90.00,296.92, 34.92, 34.40, 31.43, 25.80, 22.90,
   141,10/11/05 02:21:14,11,290.95, 63.22,1020.9,N,  0.00, 90.00,296.92, 34.13, 33.51, 30.44, 24.67, 20.68,
   142,10/11/05 02:22:14,11,291.01, 62.89,1020.7,N,  0.00, 90.00,296.92, 34.54, 33.92, 30.91, 25.29, 21.21,
   143,10/11/05 02:23:14,11,291.06, 63.83,1020.8,N,  0.00, 90.00,296.92, 34.34, 34.24, 30.85, 25.20, 22.17,
   144,10/11/05 02:24:14,11,291.07, 64.16,1020.9,N,  0.00, 90.00,296.92, 33.53, 33.42, 30.44, 24.54, 21.10,
   145,10/11/05 02:25:13,11,291.13, 64.98,1020.8,N,  0.00, 90.00,296.92, 32.64, 32.89, 29.51, 23.64, 20.15,
   146,10/11/05 02:26:14,11,291.15, 62.51,1020.8,N,  0.00, 90.00,296.93, 33.67, 33.26, 29.91, 24.51, 20.12,
   147,10/11/05 02:27:14,11,291.29, 64.16,1020.9,N,  0.00, 90.00,296.91, 32.70, 33.49, 29.92, 23.89, 20.86,
   148,10/11/05 02:28:14,11,291.04, 62.25,1021.0,N,  0.00, 90.00,296.92, 33.52, 33.33, 29.77, 24.54, 21.23,
   149,10/11/05 02:29:14,11,291.22, 62.23,1020.9,N,  0.00, 90.00,296.91, 34.01, 33.76, 30.21, 24.24, 19.89,
   150,10/11/05 02:30:14,11,291.22, 68.37,1020.9,N,  0.00, 90.00,296.91, 34.13, 33.79, 30.66, 24.98, 21.04,
   151,10/11/05 02:31:13,11,291.00, 68.68,1021.0,N,  0.00, 90.00,296.92, 33.52, 33.56, 29.88, 24.48, 21.23,
   152,10/11/05 02:32:14,11,290.95, 66.85,1020.9,N,  0.00, 90.00,296.92, 33.70, 33.95, 30.46, 25.01, 21.17,
   153,10/11/05 02:33:14,11,291.06, 67.37,1020.9,N,  0.00, 90.00,296.92, 34.11, 33.89, 30.24, 24.99, 22.05,
   154,10/11/05 02:34:14,11,291.00, 67.45,1021.0,N,  0.00, 90.00,296.91, 33.73, 33.55, 30.46, 24.13, 21.04,
   155,10/11/05 02:35:13,11,291.31, 66.67,1021.0,N,  0.00, 90.00,296.92, 33.35, 33.03, 29.42, 23.65, 19.83,
   156,10/11/05 02:36:14,11,291.14, 68.44,1021.0,N,  0.00, 90.00,296.93, 32.52, 33.05, 29.39, 23.33, 19.11,
   157,10/11/05 02:37:14,11,291.19, 68.93,1021.0,N,  0.00, 90.00,296.93, 32.37, 32.73, 29.55, 22.84, 19.23,
   158,10/11/05 02:38:14,11,290.93, 64.61,1021.1,N,  0.00, 90.00,296.94, 33.10, 33.14, 29.52, 23.69, 19.80,
   159,10/11/05 02:39:14,11,291.11, 62.34,1020.9,N,  0.00, 90.00,296.94, 33.34, 33.21, 29.51, 24.01, 20.89,
   160,10/11/05 02:40:14,11,291.17, 63.92,1020.8,N,  0.00, 90.00,296.92, 32.39, 32.74, 29.67, 23.68, 19.87,
   161,10/11/05 02:41:14,11,291.15, 64.92,1020.8,N,  0.00, 90.00,296.94, 33.73, 33.45, 29.98, 24.34, 21.01,
   162,10/11/05 02:42:14,11,291.06, 61.57,1021.1,N,  0.00, 90.00,296.94, 32.59, 33.11, 29.07, 23.83, 20.14,
   163,10/11/05 02:43:14,11,291.18, 63.08,1020.9,N,  0.00, 90.00,296.94, 33.22, 33.74, 29.77, 23.73, 21.07,
   164,10/11/05 02:44:14,11,290.93, 63.10,1021.0,N,  0.00, 90.00,296.95, 32.96, 32.54, 29.12, 23.65, 19.92,
   165,10/11/05 02:45:14,11,291.12, 60.01,1021.3,N,  0.00, 90.00,296.94, 33.32, 32.78, 29.48, 23.80, 21.24,
   166,10/11/05 02:46:14,11,291.14, 61.48,1020.9,N,  0.00, 90.00,296.94, 32.37, 32.47, 29.48, 23.31, 19.07,
   167,10/11/05 02:47:13,11,291.16, 63.45,1021.0,N,  0.00, 90.00,296.96, 32.24, 32.03, 28.68, 22.43, 17.76,
   168,10/11/05 02:48:14,11,291.02, 63.20,1020.9,N,  0.00, 90.00,296.95, 32.33, 32.21, 28.44, 22.91, 18.50,
   169,10/11/05 02:49:14,11,291.18, 62.59,1021.0,N,  0.00, 90.00,296.95, 32.76, 32.54, 29.18, 22.92, 19.10,
   170,10/11/05 02:50:14,11,291.20, 66.76,1021.2,N,  0.00, 90.00,296.94, 32.49, 32.18, 29.18, 22.86, 18.92,
   171,10/11/05 02:51:14,11,291.03, 66.09,1020.9,N,  0.00, 90.00,296.94, 32.59, 32.06, 28.69, 22.93, 18.73,
   172,10/11/05 02:52:14,11,291.07, 63.51,1021.2,N,  0.00, 90.00,296.95, 32.24, 32.15, 29.00, 22.67, 19.80,
   173,10/11/05 02:53:14,11,290.96, 63.90,1021.1,N,  0.00, 90.00,296.95, 32.23, 31.96, 28.43, 22.48, 19.21,
   174,10/11/05 02:54:14,11,290.97, 63.50,1021.1,N,  0.00, 90.00,296.94, 32.02, 32.30, 28.48, 22.20, 18.51,
   175,10/11/05 02:55:13,11,290.93, 63.12,1021.2,N,  0.00, 90.00,296.95, 32.58, 32.56, 29.44, 23.52, 19.48,
   176,10/11/05 02:56:14,11,291.01, 64.72,1021.2,N,  0.00, 90.00,296.95, 32.23, 31.87, 28.22, 22.82, 18.74,
   177,10/11/05 02:57:14,11,291.00, 63.47,1021.1,N,  0.00, 90.00,296.95, 32.17, 32.12, 28.37, 22.66, 18.74,
   178,10/11/05 02:58:14,11,291.10, 65.11,1021.0,N,  0.00, 90.00,296.94, 32.19, 32.21, 29.34, 23.01, 20.00,
   179,10/11/05 02:59:14,11,290.94, 64.09,1021.2,N,  0.00, 90.00,296.93, 32.20, 31.60, 28.31, 23.40, 19.35,
   180,10/11/05 03:00:13,11,290.98, 60.13,1021.1,N,  0.00, 90.00,296.95, 32.28, 32.31, 28.61, 22.63, 18.53,
   181,10/11/05 03:01:14,11,290.95, 60.37,1021.1,N,  0.00, 90.00,296.93, 31.71, 31.62, 28.15, 22.23, 18.44,
   182,10/11/05 03:02:14,11,291.22, 63.55,1021.0,N,  0.00, 90.00,296.92, 31.90, 32.06, 28.53, 22.46, 18.63,
   183,10/11/05 03:03:13,11,291.15, 65.38,1021.2,N,  0.00, 90.00,296.94, 31.58, 32.36, 29.11, 22.98, 19.85,
   184,10/11/05 03:04:14,11,291.04, 61.09,1021.1,N,  0.00, 90.00,296.92, 32.38, 31.86, 28.54, 22.42, 19.34,
   185,10/11/05 03:05:14,11,291.21, 63.40,1021.0,N,  0.00, 90.00,296.93, 32.27, 31.72, 28.50, 22.92, 18.99,
   186,10/11/05 03:06:14,11,291.07, 61.80,1021.2,N,  0.00, 90.00,296.92, 32.28, 31.74, 28.52, 22.63, 19.04,
   187,10/11/05 03:07:14,11,290.95, 60.44,1021.1,N,  0.00, 90.00,296.92, 31.12, 31.25, 28.07, 22.09, 18.57,
   188,10/11/05 03:08:14,11,291.07, 59.57,1021.2,N,  0.00, 90.00,296.91, 31.58, 31.29, 28.18, 22.08, 19.03,
   189,10/11/05 03:09:14,11,291.13, 62.19,1021.2,N,  0.00, 90.00,296.91, 32.13, 32.45, 28.46, 22.39, 18.63,
   190,10/11/05 03:10:13,11,291.05, 63.76,1021.2,N,  0.00, 90.00,296.91, 31.79, 31.27, 28.53, 22.57, 18.93,
   191,10/11/05 03:11:14,11,291.09, 63.78,1021.0,N,  0.00, 90.00,296.90, 32.73, 32.05, 28.47, 22.79, 20.06,
   192,10/11/05 03:12:14,11,291.09, 61.67,1021.0,N,  0.00, 90.00,296.89, 31.50, 31.81, 29.07, 23.03, 19.26,
   193,10/11/05 03:13:14,11,291.08, 60.24,1021.1,N,  0.00, 90.00,296.89, 32.05, 31.89, 28.31, 22.67, 19.39,
   194,10/11/05 03:14:13,11,291.04, 61.16,1021.1,N,  0.00, 90.00,296.89, 32.16, 32.18, 28.60, 22.97, 18.58,
   195,10/11/05 03:15:14,11,291.19, 65.30,1021.1,N,  0.00, 90.00,296.89, 31.79, 31.16, 27.69, 22.27, 18.41,
   196,10/11/05 03:16:14,11,291.00, 62.50,1021.3,N,  0.00, 90.00,296.87, 31.85, 31.46, 27.59, 22.28, 18.64,
   197,10/11/05 03:17:14,11,291.08, 62.64,1021.3,N,  0.00, 90.00,296.87, 31.89, 31.97, 28.70, 22.04, 18.92,
   198,10/11/05 03:18:14,11,291.02, 63.64,1021.4,N,  0.00, 90.00,296.87, 31.69, 32.16, 28.09, 22.43, 18.83,
   199,10/11/05 03:19:14,11,290.96, 60.24,1021.0,N,  0.00, 90.00,296.85, 32.15, 31.22, 28.08, 22.24, 18.52,
   200,10/11/05 03:20:14,11,291.00, 58.42,1021.1,N,  0.00, 90.00,296.85, 30.92, 31.13, 27.39, 21.65, 18.43,
   201,10/11/05 03:21:14,11,291.07, 61.94,1021.2,N,  0.00, 90.00,296.83, 31.04, 31.30, 28.19, 21.84, 18.12,
   202,10/11/05 03:22:14,11,290.94, 60.17,1021.2,N,  0.00, 90.00,296.85, 31.09, 30.90, 27.10, 21.62, 17.29,
   203,10/11/05 03:23:14,11,291.07, 60.64,1021.3,N,  0.00, 90.00,296.85, 30.92, 30.80, 27.16, 21.32, 18.00,
   204,10/11/05 03:24:14,11,291.07, 60.87,1021.1,N,  0.00, 90.00,296.84, 31.45, 31.48, 28.02, 21.76, 18.42,
   205,10/11/05 03:25:14,11,290.88, 60.56,1021.1,N,  0.00, 90.00,296.83, 31.46, 31.39, 28.08, 22.43, 18.31,
   206,10/11/05 03:26:13,11,291.15, 59.61,1021.2,N,  0.00, 90.00,296.82, 31.29, 31.64, 27.76, 22.56, 18.60,
   207,10/11/05 03:27:14,11,291.09, 62.51,1021.3,N,  0.00, 90.00,296.83, 31.61, 31.20, 28.37, 22.45, 18.42,
   208,10/11/05 03:28:14,11,290.94, 60.79,1021.3,N,  0.00, 90.00,296.82, 31.01, 30.55, 27.75, 21.68, 18.05,
   209,10/11/05 03:29:13,11,291.00, 58.00,1021.4,N,  0.00, 90.00,296.82, 31.32, 30.96, 27.80, 21.83, 18.30,
   210,10/11/05 03:30:14,11,291.01, 60.57,1021.1,N,  0.00, 90.00,296.82, 31.51, 31.48, 28.13, 22.18, 18.20,
   211,10/11/05 03:31:14,11,291.00, 61.72,1021.2,N,  0.00, 90.00,296.82, 31.24, 30.71, 27.33, 21.63, 17.64,
   212,10/11/05 03:32:13,11,291.01, 59.46,1021.2,N,  0.00, 90.00,296.81, 31.33, 31.00, 27.63, 22.00, 18.27,
   213,10/11/05 03:33:14,11,290.92, 58.61,1021.2,N,  0.00, 90.00,296.81, 30.98, 30.71, 27.59, 21.65, 17.58,
   214,10/11/05 03:34:14,11,290.97, 59.27,1021.2,N,  0.00, 90.00,296.80, 31.62, 31.39, 27.53, 22.21, 18.59,
   215,10/11/05 03:35:14,11,291.01, 59.21,1021.3,N,  0.00, 90.00,296.82, 31.41, 31.07, 27.94, 22.04, 18.59,
   216,10/11/05 03:36:13,11,291.09, 61.47,1021.1,N,  0.00, 90.00,296.81, 31.31, 31.31, 27.57, 22.20, 17.46,
   217,10/11/05 03:37:14,11,291.01, 59.36,1021.2,N,  0.00, 90.00,296.81, 30.67, 30.52, 27.23, 21.00, 17.18,
   218,10/11/05 03:38:13,11,291.07, 61.37,1021.1,N,  0.00, 90.00,296.81, 31.73, 31.67, 28.27, 22.29, 17.95,
   219,10/11/05 03:39:14,11,291.00, 60.53,1021.2,N,  0.00, 90.00,296.80, 32.32, 31.92, 28.31, 22.65, 19.70,